星链-2396 (STARLINK-2396 )

导读 | 豆包AI

STARLINK-2396是美国SpaceX公司星链(Starlink)星座中的一颗低轨通信卫星,于2021年3月11日发射入轨。作为星链星座组网阶段的一员,它属于第一代星链卫星,旨在为全球提供高速低延迟宽带互联网服务,尤其服务偏远地区和网络基础设施匮乏区域。该卫星运行在近地轨道,通过星链星座协同实现全球无缝覆盖,是SpaceX构建大规模卫星互联网星座计划的重要组成部分,推动了全球卫星通信的发展,同时也引发了太空碎片与天文观测相关讨论。

基本信息
目录编号:
47815
目录名称:
STARLINK-2396
国际标识:
2021-018AE
轨道中心:
EARTH
卫星名称:
星链-2396
卫星全名:
星链-2396 (STARLINK-2396 )
卫星状态:
在轨 (已飞行1829 天)
发射日期:
2021-03-11 UTC
国别 :
美国 (US)
星等 :
--
轨道信息
数据来源 国际轨道数据
星历时间: 2026-03-13T18:33:33+0800
1天前
查看轨道信息
半长轴: 6853.383km
偏心率: 0.0001888
轨道倾角: 53.160°
近地点辐角 93.498°
升交点赤经 225.273°
平近点角 266.624°
近地点: 473.952km
远地点: 476.54km
周期: 94.106分钟
每日圈数: 15.301897
详细信息
固有亮度:
5
最大亮度:
2.5
卫星平台:
Starlink V1.0
覆盖范围:
全球
运营商:
太空探索技术公司
运营商所在国:
美国
制造商(研发单位):
太空探索技术公司
制造商所在国:
美国
使用方式:
暂无
卫星简介
星链(Starlink)计划是由太空探索技术公司(SpaceX)提出的一个巨型低轨卫星互联网星座项目,计划在2019年至2024年间在太空搭建由约1.2万颗卫星组成的“星链”网络,其中1584颗将部署在地球上空550千米处的近地轨道,并从2020年开始工作。该卫星仍在工作。
2D轨道图
3D轨道图
轨道高度分析图
轨道倾角分析图
轨道综合分析图
查看轨道综合分析图